Weather in Zhadove

Ukraine / Chernihiv Region     52°03′04″N   32°40′03″E
temp.,
°C
wind,
m/s
gust,
m/s
humid.,
%
clouds,
%
prec.,
mm/h
press.,
hPa
HPBL,
m
11 may, tue
tue1100:00+7ne37820 0.0 1024111
03:00+6nne410786 0.0 1024173
06:00+7nne4117651 0.0 1024247
09:00+12nne69675 0.0 1023363
12:00+17nne69625 0.0 1021686
15:00+20ne79585 0.0 10201208
18:00+18ene7107138 0.3 10201044
21:00+10e4118888 0.5 1021418
12 may, wed
wed1200:00+8ene410940 0.0 1022275
03:00+6e512914 0.0 1022533
06:00+8e5118048 0.0 1022713
09:00+11e6107419 0.0 1022963
12:00+13e6967100 0.2 10201449
15:00+14e71066100 1.4 10191424
18:00+13ene4770100 0.4 10161118
21:00+9e41090100 1.1 1015329
13 may, thu
thu1300:00+8ene499543 0.3 1013402
03:00+8se3994100 0.6 1012458
06:00+5se4109789 0.1 1013336
09:00+8sse5992100 0.1 1014541
12:00+13sse686584 0.4 10131454
15:00+14s566098 0.5 10131338
18:00+15s466331 0.0 10131528
21:00+10ese3479100 0.0 101350
14 may, fri
fri1400:00+9ese488295 0.0 1013132
03:00+11ese4976100 0.0 1012186
06:00+11ese41195100 0.1 1011287
09:00+16se588348 0.4 1009551
12:00+20sse68659 0.2 10091433
15:00+21s6860100 0.9 10081705
18:00+20s476941 0.4 1008881
21:00+15s338971 0.4 100838
15 may, sat
sat1500:00+13s33932 0.0 100845
03:00+12ssw2394100 0.0 100837
06:00+12sw239770 0.8 100891
09:00+16wsw347979 0.8 1008477
12:00+19wsw346227 0.0 10091192
15:00+18wsw567293 3.3 10091130
18:00+16wsw468085 0.3 1009518
21:00+12wsw34915 0.6 101054